Location: Tel Aviv
(32.0670°N, 34.7670°E)
Time: 19:10:24
(UTC+03:00)

Vanguard 2 Rocket - Pass Details

Date: 30 January 2022
Orbit: 553 x 3323 km, 32.9° (Epoch: 24 May)

Event Time Altitude Azimuth Distance (km) Brightness Sun altitude
Exits shadow 00:43:34 25° 80° (E) 4,740 10.5 -71.8°
Drops below altitude 10° 00:49:49 10° 79° (ENE) 6,165 11.2 -70.9°
Sets 00:54:57 0° 79° (ENE) 7,296 11.7 -70.2°
